GW0890 Weather Reports


time (UTC)temp
C
wind
direction
speed
KPH
gust
KPH
rain 1hr
cm
rain 24hr
cm
rain mn
cm
humidity
%
barometer
mb
20260506044544 15 44 0.0 8.0 0.00 0.00 0.00 88 1005.7
20260506043033 16 15 1.6 8.0 0.00 0.00 0.00 85 1005.8
20260506041529 15 58 6.4 19.3 0.00 0.00 0.00 87 1006.1
20260506040048 15 250 0.0 9.7 0.00 0.00 0.00 91 1006.2
20260506034525 15 260 1.6 12.9 0.00 0.00 0.00 89 1006.1
20260506033019 16 207 1.6 9.7 0.00 0.00 0.00 84 1006.4
20260506031533 16 237 1.6 6.4 0.00 0.00 0.00 80 1006.4
20260506030014 16 222 0.0 3.2 0.00 0.00 0.00 76 1006.4
20260506024519 17 222 0.0 6.4 0.00 0.00 0.00 75 1006.5
20260506023012 17 194 4.8 8.0 0.00 0.00 0.00 73 1006.6
20260506021511 17 94 0.0 3.2 0.00 0.00 0.00 70 1006.6
20260506020010 17 94 0.0 3.2 0.00 0.00 0.00 70 1006.5
20260506020008 17 93 0.0 3.2 0.00 0.00 0.00 70 1006.5
20260506014511 18 92 0.0 0.0 0.00 0.00 0.00 69 1006.2
20260506013005 18 90 0.0 3.2 0.00 0.00 0.00 66 1006.4
20260506011502 18 90 0.0 0.0 0.00 0.00 0.00 64 1006.4
20260506010000 19 90 0.0 3.2 0.00 0.00 0.00 63 1006.5
20260506004501 20 83 1.6 4.8 0.00 0.00 0.00 60 1006.4
20260506003100 21 78 3.2 4.8 0.00 0.00 0.00 56 1006.5
20260506003004 21 76 1.6 4.8 0.00 0.00 0.00 56 1006.5
20260506001557 21 74 0.0 3.2 0.00 0.00 0.00 47 1006.7
20260506000101 22 75 1.6 8.0 0.00 0.00 0.00 47 1006.8
20260505234603 22 76 4.8 9.7 0.00 0.00 0.00 46 1007.0
20260505233109 22 46 6.4 12.9 0.00 0.00 0.00 46 1007.1
20260505231555 22 61 6.4 20.9 0.00 0.00 0.00 46 1007.1
20260505230052 22 45 9.7 14.5 0.00 0.00 0.00 46 1007.3
20260505224552 22 46 9.7 17.7 0.00 0.00 0.00 46 1007.3
20260505223054 23 40 6.4 19.3 0.00 0.00 0.00 46 1007.2
20260505221520 23 16 9.7 30.6 0.00 0.00 0.00 45 1007.2
20260505220018 23 22 17.7 25.7 0.00 0.00 0.00 46 1007.2
20260505214514 23 5 8.0 14.5 0.00 0.00 0.00 48 1007.2
20260505213012 23 23 11.3 25.7 0.00 0.00 0.00 48 1007.2
20260505211512 23 349 11.3 19.3 0.00 0.00 0.00 49 1007.3
20260505210010 23 335 6.4 17.7 0.00 0.00 0.00 50 1007.4
20260505204507 23 44 8.0 24.1 0.00 0.00 0.00 49 1007.5
20260505203006 23 60 11.3 16.1 0.00 0.00 0.00 49 1007.8
20260505201505 23 52 14.5 20.9 0.00 0.00 0.00 49 1007.8
20260505200004 23 48 9.7 22.5 0.00 0.00 0.00 50 1007.9
20260505194501 23 329 8.0 19.3 0.00 0.00 0.00 50 1008.1
20260505193100 23 46 14.5 24.1 0.00 0.00 0.00 49 1008.6
20260505191600 23 24 9.7 22.5 0.00 0.00 0.00 50 1008.8
20260505190059 23 67 12.9 20.9 0.00 0.03 0.00 48 1008.9
20260505184556 23 44 12.9 30.6 0.00 0.03 0.00 50 1009.1
20260505183053 23 11 14.5 30.6 0.00 0.03 0.00 50 1009.3
20260505181557 23 71 11.3 25.7 0.00 0.03 0.00 50 1009.6
20260505180051 23 22 16.1 30.6 0.00 0.03 0.00 48 1009.5
20260505174555 22 30 19.3 33.8 0.00 0.03 0.00 50 1009.7
20260505173048 22 37 16.1 30.6 0.00 0.03 0.00 52 1009.9
20260505171551 23 360 11.3 30.6 0.00 0.03 0.00 51 1009.8
20260505170046 23 42 14.5 32.2 0.00 0.03 0.00 51 1009.9
20260505164556 23 19 17.7 33.8 0.00 0.03 0.00 50 1009.8
20260505163051 23 339 12.9 24.1 0.00 0.03 0.00 53 1009.6
20260505161539 23 345 14.5 35.4 0.00 0.03 0.00 52 1010.0
20260505153029 22 61 14.5 33.8 0.00 0.03 0.00 54 1010.3
20260505151526 22 73 14.5 24.1 0.00 0.03 0.00 54 1010.2
20260505124538 19 59 11.3 20.9 0.00 0.03 0.00 59 1010.4
20260505123029 18 306 9.7 16.1 0.00 0.03 0.00 61 1010.4
20260505121529 18 24 8.0 14.5 0.00 0.03 0.00 61 1010.2
20260505120114 18 11 3.2 16.1 0.00 0.03 0.00 63 1010.0
20260505114555 17 23 6.4 16.1 0.00 0.03 0.00 64 1009.7
20260505113024 17 31 3.2 14.5 0.00 0.03 0.00 66 1009.7
20260505111533 16 340 1.6 8.0 0.00 0.03 0.00 66 1009.7
20260505101515 17 24 3.2 11.3 0.00 0.03 0.00 62 1009.4
20260505100017 17 33 8.0 12.9 0.00 0.03 0.00 62 1009.3
20260505094509 18 56 4.8 16.1 0.00 0.03 0.00 62 1009.0
20260505093008 18 18 6.4 19.3 0.00 0.03 0.00 62 1008.8
20260505091507 18 26 8.0 16.1 0.00 0.03 0.00 62 1008.6
20260505090005 18 26 6.4 12.9 0.00 0.03 0.00 62 1008.7
20260505084503 18 13 4.8 12.9 0.00 0.03 0.00 63 1008.5
20260505083005 18 22 8.0 16.1 0.00 0.03 0.00 62 1008.5
20260505081501 18 41 8.0 14.5 0.00 0.03 0.00 61 1008.5
20260505080033 18 22 11.3 20.9 0.00 0.03 0.00 61 1008.4
20260505074530 18 56 9.7 20.9 0.00 0.03 0.00 61 1008.4
20260505073041 19 61 12.9 22.5 0.00 0.03 0.00 60 1008.4
20260505071544 19 69 11.3 17.7 0.00 0.03 0.00 61 1008.2
20260505070026 19 13 12.9 22.5 0.00 0.03 0.00 61 1008.2
20260505064527 18 45 9.7 22.5 0.00 0.03 0.00 61 1008.4
20260505063021 18 57 9.7 16.1 0.00 0.03 0.00 61 1008.4
20260505061520 18 42 11.3 16.1 0.00 0.03 0.00 61 1008.4
20260505060018 18 48 9.7 14.5 0.00 0.03 0.00 61 1008.3
20260505054517 18 22 8.0 11.3 0.00 0.03 0.00 62 1008.5
20260505053023 18 29 4.8 11.3 0.00 0.03 0.00 61 1008.5